Change the Weather History Date:

Tuesday, April 2, 2013

  Actual Average (KFWA) Record (KFWA)
Temperature  
Mean Temperature 32 °F 45 °F  
Max Temperature 42 °F 56 °F 83 °F (2010)
Min Temperature 21 °F 34 °F 16 °F (1899)
Degree Days  
Heating Degree Days 34 20  
Month to date heating degree days 41  
Since 1 July heating degree days 5465  
Cooling Degree Days 0 0  
Month to date cooling degree days 0  
Year to date cooling degree days 0  
Moisture  
Dew Point 13 °F    
Average Humidity 51    
Maximum Humidity 86    
Minimum Humidity 24    
Precipitation  
Precipitation 0.00 in 0.12 in 0.83 in (1983)
Month to date precipitation 0.24  
Year to date precipitation 7.25  
Snow  
Snow 0.00 in 0.00 in 3.00 in (1970)
Month to date snowfall 0.1  
Since 1 July snowfall 32.6  
Snow Depth -    
Sea Level Pressure  
Sea Level Pressure 30.19 in    
Wind  
Wind Speed 4 mph (WNW)    
Max Wind Speed 20 mph    
Max Gust Speed 31 mph    
Visibility 10 miles    
Events Snow    
T = Trace of Precipitation, MM = Missing Value Source: NWS Daily Summary

Daily Weather History Graph

Daily Weather History Graph

Search for Another Location

Airport or City:

Trip Planner

Search our weather history database for the weather conditions in past years. The results will help you decide how hot, cold, wet, or windy it might be!

Date:

Astronomy

Apr. 02, 2013 Rise Set
Actual Time 7:21 AM EDT 8:06 PM EDT
Civil Twilight 6:53 AM EDT 8:34 PM EDT
Nautical Twilight 6:20 AM EDT 9:07 PM EDT
Astronomical Twilight 5:46 AM EDT 9:42 PM EDT
Moon 2:13 AM EDT (4/2) 12:08 PM EDT (4/2)
Length of Visible Light 13h 41m
Length of Day
12h 45m
Waning Gibbous, 56% of the Moon is Illuminated
Apr 2
Waning Gibbous
Apr 3
Last Quarter
Apr 10
New
Apr 18
First Quarter
Apr 25
Full

Hourly Weather History & Observations

Time (EDT) Temp. Windchill Dew Point Humidity Pressure Visibility Wind Dir Wind Speed Gust Speed Precip Events Conditions
12:15 AM 26.6 °F - 14.0 °F 59% 30.13 in 10.0 mi Calm Calm - N/A   Clear
12:35 AM 26.6 °F - 14.0 °F 59% 30.13 in 10.0 mi Calm Calm - N/A   Clear
12:55 AM 26.6 °F - 14.0 °F 59% 30.13 in 10.0 mi Calm Calm - N/A   Clear
1:15 AM 24.8 °F - 15.8 °F 69% 30.14 in 10.0 mi Calm Calm - N/A   Clear
1:35 AM 23.0 °F - 17.6 °F 80% 30.13 in 10.0 mi Calm Calm - N/A   Clear
1:55 AM 23.0 °F - 17.6 °F 80% 30.14 in 10.0 mi Calm Calm - N/A   Clear
2:15 AM 23.0 °F - 17.6 °F 80% 30.14 in 10.0 mi Calm Calm - N/A   Clear
2:35 AM 23.0 °F - 17.6 °F 80% 30.14 in 10.0 mi Calm Calm - N/A   Clear
2:55 AM 23.0 °F - 15.8 °F 74% 30.14 in 10.0 mi Calm Calm - N/A   Clear
3:15 AM 23.0 °F - 17.6 °F 80% 30.14 in 10.0 mi Calm Calm - N/A   Clear
3:35 AM 23.0 °F - 15.8 °F 74% 30.14 in 10.0 mi Calm Calm - N/A   Clear
3:55 AM 21.2 °F - 17.6 °F 86% 30.14 in 10.0 mi Calm Calm - N/A   Scattered Clouds
4:15 AM 23.0 °F - 17.6 °F 80% 30.15 in 10.0 mi Calm Calm - N/A   Mostly Cloudy
4:35 AM 23.0 °F - 17.6 °F 80% 30.15 in 10.0 mi Calm Calm - N/A   Mostly Cloudy
4:55 AM 26.6 °F 22.6 °F 17.6 °F 69% 30.14 in 7.0 mi WSW 3.5 mph - N/A Snow Light Snow
5:15 AM 23.0 °F - 17.6 °F 80% 30.14 in 10.0 mi Calm Calm - N/A   Scattered Clouds
5:35 AM 23.0 °F - 17.6 °F 80% 30.15 in 10.0 mi Calm Calm - N/A   Clear
5:55 AM 23.0 °F 18.4 °F 17.6 °F 80% 30.15 in 10.0 mi WSW 3.5 mph - N/A   Clear
6:15 AM 24.8 °F 20.5 °F 17.6 °F 74% 30.16 in 10.0 mi SW 3.5 mph - N/A   Clear
6:35 AM 23.0 °F - 17.6 °F 80% 30.17 in 10.0 mi Calm Calm - N/A   Clear
6:55 AM 23.0 °F 18.4 °F 15.8 °F 74% 30.17 in 10.0 mi West 3.5 mph - N/A   Clear
7:15 AM 23.0 °F 17.0 °F 15.8 °F 74% 30.18 in 10.0 mi West 4.6 mph - N/A   Clear
7:35 AM 23.0 °F 18.4 °F 15.8 °F 74% 30.18 in 10.0 mi West 3.5 mph - N/A   Clear
7:55 AM 23.0 °F 18.4 °F 17.6 °F 80% 30.19 in 10.0 mi West 3.5 mph - N/A   Clear
8:15 AM 24.8 °F 20.5 °F 17.6 °F 74% 30.20 in 10.0 mi WSW 3.5 mph - N/A   Clear
8:35 AM 26.6 °F 22.6 °F 19.4 °F 74% 30.21 in 10.0 mi West 3.5 mph - N/A   Clear
8:55 AM 28.4 °F 24.6 °F 21.2 °F 74% 30.21 in 10.0 mi West 3.5 mph - N/A   Clear
9:15 AM 30.2 °F 25.4 °F 21.2 °F 69% 30.22 in 10.0 mi West 4.6 mph - N/A   Clear
9:35 AM 32.0 °F 26.4 °F 21.2 °F 64% 30.22 in 10.0 mi WNW 5.8 mph - N/A   Clear
9:55 AM 32.0 °F - 21.2 °F 64% 30.23 in 10.0 mi Calm Calm - N/A   Clear
10:35 AM 33.8 °F 27.0 °F 17.6 °F 52% 30.23 in 10.0 mi West 8.1 mph - N/A   Mostly Cloudy
10:55 AM 33.8 °F 25.8 °F 14.0 °F 44% 30.23 in 10.0 mi WNW 10.4 mph 18.4 mph N/A   Mostly Cloudy
11:15 AM 33.8 °F 26.4 °F 14.0 °F 44% 30.23 in 10.0 mi West 9.2 mph - N/A   Mostly Cloudy
11:35 AM 35.6 °F 26.6 °F 14.0 °F 41% 30.23 in 10.0 mi WNW 13.8 mph 18.4 mph N/A   Scattered Clouds
11:55 AM 35.6 °F 28.6 °F 14.0 °F 41% 30.23 in 10.0 mi WNW 9.2 mph 19.6 mph N/A   Scattered Clouds
12:15 PM 37.4 °F 28.5 °F 14.0 °F 38% 30.23 in 10.0 mi WNW 15.0 mph 18.4 mph N/A   Mostly Cloudy
12:35 PM 35.6 °F 29.2 °F 12.2 °F 38% 30.22 in 10.0 mi West 8.1 mph - N/A   Scattered Clouds
12:55 PM 39.2 °F 30.8 °F 14.0 °F 36% 30.22 in 10.0 mi West 15.0 mph - N/A   Mostly Cloudy
1:15 PM 39.2 °F 31.2 °F 14.0 °F 36% 30.21 in 10.0 mi West 13.8 mph 18.4 mph N/A   Mostly Cloudy
1:35 PM 39.2 °F 31.2 °F 12.2 °F 33% 30.20 in 10.0 mi WNW 13.8 mph 20.7 mph N/A   Scattered Clouds
1:55 PM 41.0 °F 34.3 °F 14.0 °F 33% 30.20 in 10.0 mi West 11.5 mph 21.9 mph N/A   Scattered Clouds
2:15 PM 41.0 °F 34.7 °F 12.2 °F 31% 30.20 in 10.0 mi West 10.4 mph 16.1 mph N/A   Scattered Clouds
2:35 PM 41.0 °F 33.5 °F 12.2 °F 31% 30.19 in 10.0 mi WSW 13.8 mph 18.4 mph N/A   Scattered Clouds
2:55 PM 42.8 °F 34.8 °F 12.2 °F 29% 30.19 in 10.0 mi West 17.3 mph 31.1 mph N/A   Mostly Cloudy
3:15 PM 41.0 °F 33.1 °F 10.4 °F 29% 30.17 in 10.0 mi West 15.0 mph 23.0 mph N/A   Scattered Clouds
3:35 PM 42.8 °F 34.3 °F 10.4 °F 27% 30.17 in 10.0 mi West 19.6 mph 24.2 mph N/A   Scattered Clouds
3:55 PM 42.8 °F 35.8 °F 10.4 °F 27% 30.17 in 10.0 mi West 13.8 mph 18.4 mph N/A   Scattered Clouds
4:15 PM 42.8 °F 35.4 °F 10.4 °F 27% 30.17 in 10.0 mi West 15.0 mph 23.0 mph N/A   Scattered Clouds
4:35 PM 42.8 °F 36.6 °F 10.4 °F 27% 30.17 in 10.0 mi WNW 11.5 mph 23.0 mph N/A   Scattered Clouds
4:55 PM 42.8 °F 35.1 °F 10.4 °F 27% 30.17 in 10.0 mi West 16.1 mph 25.3 mph N/A   Scattered Clouds
5:15 PM 42.8 °F 35.4 °F 8.6 °F 25% 30.17 in 10.0 mi West 15.0 mph 27.6 mph N/A   Clear
5:35 PM 41.0 °F 33.1 °F 8.6 °F 26% 30.18 in 10.0 mi NW 15.0 mph 25.3 mph N/A   Clear
5:55 PM 41.0 °F 33.5 °F 8.6 °F 26% 30.19 in 10.0 mi WNW 13.8 mph 24.2 mph N/A   Clear
6:15 PM 41.0 °F 33.1 °F 6.8 °F 24% 30.19 in 10.0 mi WNW 15.0 mph 26.5 mph N/A   Clear
6:35 PM 39.2 °F 29.8 °F 5.0 °F 24% 30.20 in 10.0 mi WNW 18.4 mph 24.2 mph N/A   Clear
6:55 PM 39.2 °F 31.2 °F 8.6 °F 28% 30.21 in 10.0 mi WNW 13.8 mph 21.9 mph N/A   Clear
7:15 PM 37.4 °F 28.9 °F 5.0 °F 26% 30.22 in 10.0 mi NW 13.8 mph 23.0 mph N/A   Clear
7:35 PM 35.6 °F 27.5 °F 5.0 °F 28% 30.22 in 10.0 mi NW 11.5 mph 18.4 mph N/A   Clear
7:55 PM 35.6 °F 28.6 °F 5.0 °F 28% 30.22 in 10.0 mi NW 9.2 mph 16.1 mph N/A   Clear
8:15 PM 33.8 °F 26.4 °F 5.0 °F 30% 30.22 in 10.0 mi NNW 9.2 mph - N/A   Clear
8:35 PM 33.8 °F 27.7 °F 6.8 °F 32% 30.22 in 10.0 mi NNW 6.9 mph - N/A   Clear
8:55 PM 32.0 °F 28.7 °F 6.8 °F 35% 30.23 in 10.0 mi NW 3.5 mph - N/A   Clear
9:15 PM 32.0 °F 28.7 °F 6.8 °F 35% 30.23 in 10.0 mi NW 3.5 mph - N/A   Clear
9:35 PM 32.0 °F 27.5 °F 8.6 °F 38% 30.24 in 10.0 mi NNW 4.6 mph - N/A   Clear
9:55 PM 32.0 °F 28.7 °F 8.6 °F 38% 30.25 in 10.0 mi NNW 3.5 mph - N/A   Clear
10:15 PM 32.0 °F - 8.6 °F 38% 30.25 in 10.0 mi Calm Calm - N/A   Clear
10:35 PM 32.0 °F 28.7 °F 8.6 °F 38% 30.26 in 10.0 mi WNW 3.5 mph - N/A   Clear
10:55 PM 30.2 °F 26.7 °F 10.4 °F 44% 30.27 in 10.0 mi West 3.5 mph - N/A   Clear
11:15 PM 30.2 °F 26.7 °F 10.4 °F 44% 30.27 in 10.0 mi NW 3.5 mph - N/A   Clear
11:35 PM 28.4 °F 24.6 °F 12.2 °F 51% 30.27 in 10.0 mi NW 3.5 mph - N/A   Clear
11:55 PM 30.2 °F 26.7 °F 12.2 °F 47% 30.27 in 10.0 mi WNW 3.5 mph - N/A   Clear